Regional Weather Roundup
Issued by NWS Portland, ME

Home | Current Version | Previous Version | Text Only | Print | Product List | Glossary On
Versions: 1 2 3 4 5 6 7 8 9 10 11 12 13 14 15 16 17 18 19 20 21 22 23 24 25 26 27 28 29 30 31 32 33 34 35 36 37 38 39 40 41 42 43 44 45 46 47 48 49 50
000
ASUS41 KGYX 240505
RWRGYX
WEATHER ROUNDUP FOR MAINE AND NEW HAMPSHIRE
NATIONAL WEATHER SERVICE GRAY ME
100 AM EDT WED SEP 24 2014

MEZ002-005-006-010-012-015-018-020-021-024-026-027-029-240600-
MAINE

CITY           SKY/WX    TMP DP  RH WIND       PRES   REMARKS
PORTLAND       CLEAR     49  46  90 CALM      30.44R
SANFORD        CLEAR     45  43  93 CALM      30.45R
BAR HARBOR     CLEAR     52  48  87 NW3       30.42R
WISCASSET      CLEAR     46  43  89 CALM      30.44R
ROCKLAND       CLEAR     46  43  87 SW5       30.42R
FRYEBURG       CLEAR     43  42  97 W3        30.44R FOG
LEWISTONAUBURN CLEAR     46  43  87 CALM      30.43R
AUGUSTA        CLEAR     52  47  83 W6        30.43R
WATERVILLE     CLEAR     46  41  81 CALM      30.38R
BANGOR         CLEAR     47  43  86 CALM      30.43R
GREENVILLE       N/A     47  45  93 NW6       30.40R
MILLINOCKET    CLEAR     44  42  93 CALM      30.44R
HOULTON        CLEAR     42  38  85 CALM      30.40R
PRESQUE ISLE   CLEAR     43  36  75 NW6       30.41R
FRENCHVILLE    CLEAR     37  31  78 NW10      30.39R
CARIBOU        CLEAR     42  35  76 N8        30.40R
$$

NHZ002-005-008-009-011-012-014-240600-
NEW HAMPSHIRE

CITY           SKY/WX    TMP DP  RH WIND       PRES   REMARKS
PORTSMOUTH     CLEAR     52  48  87 SW2       30.43R
ROCHESTER      CLEAR     49  46  90 NW6       30.44R
NASHUA         CLEAR     49  48  96 CALM      30.46R
MANCHESTER     CLEAR     52  47  83 CALM      30.44R
CONCORD        CLEAR     46  45  96 NW3       30.45R
LACONIA        CLEAR     48  45  87 CALM      30.44R
PLYMOUTH       FAIR      44  44 100 CALM      30.45R FOG
BERLIN         PTCLDY    41  41 100 CALM      30.45R FOG
WHITEFIELD     CLEAR     40  38  93 CALM      30.46R
JAFFREY        CLEAR     45  44  97 S3        30.47R
LEBANON        CLEAR     44  41  89 CALM      30.45R
MT WASHINGTON  FOG       34  34 100 NW35        N/A  VSB 1/16WCI  19
$$

VTZ005-007-008-240600-
VERMONT

CITY           SKY/WX    TMP DP  RH WIND       PRES   REMARKS
ST JOHNSBURY     N/A     46  45  96 MISG      30.45R
MONTPELIER     CLEAR     45  45 100 CALM      30.48R FOG
BURLINGTON     CLEAR     52  49  89 CALM      30.44R
$$

MAZ007-012-024-CTZ003-RIZ002-NYZ038-NYZ072-240600-
SOUTHERN NEW ENGLAND AND NY

CITY           SKY/WX    TMP DP  RH WIND       PRES   REMARKS
BOSTON         CLEAR     61  49  64 NW8       30.44R
WORCESTER      CLEAR     52  47  83 NW7       30.46R
NANTUCKET      PTCLDY    55  48  77 CALM      30.44R
PROVIDENCE     CLEAR     54  48  80 CALM      30.45R
HARTFORD       PTCLDY    54  50  86 CALM      30.43R
ALBANY         PTCLDY    53  49  86 CALM      30.45R
NEW YORK CITY  PTCLDY    63  51  65 CALM      30.42R
$$

ANZ081-ANZ082-ANZ150-NHZ014-MEZ023>029-240600-
COASTAL MARINE OBSERVATIONS

STATION/POSITION TIME  TEMP    WIND        PRES    WAVE
                       AIR SEA DIR/SP/G            HT/PER
                 (UTC) (F)     (DEG/KT/KT) (MB)    (FT/S)
MATINICUS ROCK   0400          320/ 11/ 12 1028.9R
PORTLAND WX BUOY 0450   57 58  330/  6/  8 1030.0R   2/10
WELLS            0400   53 51  330/  1/  4 1028.9R
ISLE OF SHOALS   0400   58     290/  9/ 10 1029.4R
JEFFREYS LEDGE   0421      60                N/A     2/ 9
CASHES LEDGE BUO 0450   61 57              1029.9R   2/ 9
$$

.............KEY..............
   WCI - WIND CHILL
   TC  - TEMPERATURE IN CELSIUS
   VSB - VISIBILITY IN MILES
   HX  - HEAT INDEX
   FAIR- INDICATES FEW OR NO CLOUDS BELOW 12,000 FT, WITH NO
         SIGNIFICANT WEATHER AND/OR OBSTRUCTIONS TO VISIBILITY.




USA.gov is the U.S. government's official web portal to all federal, state and local government web resources and services.